Flag for Japan

Past Weather in Suzuka, Japan — Yesterday and Last 2 Weeks

Now
72 °F

Mild.


Feels Like: 70 °F
Forecast: 79 / 74 °F
Wind: 3 mph from Southwest

Location: Tsu

Current Time: Jul 5, 2020 at 4:45:15 am

Latest Report: Jul 5, 2020 at 4:00 am


Visibility: 10 mi

Pressure: 29.71 "Hg

Humidity: 88%

Dew Point: 69 °F

Location of SuzukaLocation

Past Weather in Suzuka — Graph

°F

Suzuka Temperature Yesterday

Maximum temperature yesterday: 79 °F (at 3:00 pm)
Minimum temperature yesterday: 69 °F (at 2:00 am)
Average temperature yesterday: 74 °F

High & Low Weather Summary for the Past Weeks

 TemperatureHumidityPressure
High89 °F (Jun 27, 12:00 pm)91% (Jun 25, 5:00 am)29.99 "Hg (Jun 25, 5:00 am)
Low64 °F (Jun 21, 5:00 am)37% (Jun 29, 1:00 pm)29.50 "Hg (Jun 28, 4:00 pm)
Average76 °F70%29.74 "Hg
* Reported Jun 20 3:00 am — Jul 5 3:00 am, Suzuka. Weather by CustomWeather, © 2020

Note: Actual official high and low records may vary slightly from our data, if they occured in-between our weather recording intervals... More about our weather records

Suzuka Weather History for the Previous 24 Hours

Scroll right to see more
 ConditionsComfort  
Time TempWeatherWind HumidityBarometerVisibility
3:00 am
Sun, Jul 5
73 °FMild.3 mph84%29.70 "Hg12 mi
2:00 am74 °FMild.6 mph83%29.70 "Hg12 mi
1:00 am74 °FMild.3 mph83%29.70 "Hg12 mi
12:00 am75 °FMild.5 mph81%29.69 "Hg12 mi
11:00 pm
Sat, Jul 4
76 °FMild.7 mph79%29.71 "Hg12 mi
10:00 pm77 °FWarm.7 mph77%29.70 "Hg12 mi
9:00 pm77 °FLight rain. Overcast.6 mph82%29.69 "Hg10 mi
8:00 pm76 °FLight rain. Overcast.1 mph89%29.66 "Hg6 mi
6:00 pm78 °FLight rain. Cloudy.3 mph83%29.62 "Hg12 mi
4:00 pm78 °FLight rain. Cloudy.3 mph86%29.63 "Hg7 mi
3:00 pm79 °FWarm.5 mph78%29.63 "Hg12 mi
1:00 pm76 °FMild.3 mph87%29.68 "Hg11 mi
12:00 pm74 °FLight rain. Cloudy.7 mph89%29.70 "Hg5 mi
10:00 am73 °FMild.2 mph87%29.71 "Hg12 mi
9:00 am73 °FMild.3 mph89%29.70 "Hg12 mi
8:00 am72 °FLight rain. Cloudy.5 mph90%29.71 "Hg3 mi
6:00 am71 °FMild.2 mph90%29.70 "Hg12 mi
5:00 am70 °FMild.2 mph91%29.70 "Hg12 mi
4:00 am70 °FLight rain. Overcast.5 mph91%29.71 "Hg4 mi
Weather by CustomWeather, © 2020

See weather overview